| time (UTC) | temp F | wind direction | speed MPH | gust MPH | rain 1hr in | rain 24hr in | rain mn in | humidity % | barometer mb |
| 20260510130529 | 65 | 223 | 5.0 | 0.0 | 0.00 | 0.00 | 0.00 | 27 | 1007.7 |
| 20260510130057 | 65 | 161 | 5.0 | 0.0 | 0.00 | 0.00 | 0.00 | 24 | 1007.7 |
| 20260510125542 | 65 | 168 | 3.0 | 0.0 | 0.00 | 0.00 | 0.00 | 26 | 1008.1 |
| 20260510125033 | 65 | 182 | 3.0 | 0.0 | 0.00 | 0.00 | 0.00 | 26 | 1008.1 |
| 20260510124528 | 64 | 137 | 5.0 | 0.0 | 0.00 | 0.00 | 0.00 | 25 | 1008.2 |
| 20260510124034 | 65 | 161 | 4.0 | 0.0 | 0.00 | 0.00 | 0.00 | 22 | 1008.2 |
| 20260510123532 | 65 | 138 | 3.0 | 0.0 | 0.00 | 0.00 | 0.00 | 23 | 1008.2 |
| 20260510123043 | 65 | 216 | 3.0 | 0.0 | 0.00 | 0.00 | 0.00 | 23 | 1008.4 |
| 20260510122602 | 64 | 158 | 4.0 | 0.0 | 0.00 | 0.00 | 0.00 | 27 | 1008.4 |
| 20260510122027 | 64 | 122 | 5.0 | 0.0 | 0.00 | 0.00 | 0.00 | 27 | 1008.4 |
| 20260510121531 | 63 | 176 | 5.0 | 0.0 | 0.00 | 0.00 | 0.00 | 28 | 1008.7 |
| 20260510121057 | 63 | 121 | 4.0 | 0.0 | 0.00 | 0.00 | 0.00 | 23 | 1008.7 |
| 20260510120524 | 64 | 163 | 6.0 | 0.0 | 0.00 | 0.00 | 0.00 | 24 | 1008.7 |
| 20260510120031 | 64 | 144 | 6.0 | 0.0 | 0.00 | 0.00 | 0.00 | 23 | 1008.7 |
| 20260510115537 | 64 | 124 | 6.0 | 0.0 | 0.00 | 0.00 | 0.00 | 23 | 1008.7 |
| 20260510115046 | 64 | 162 | 6.0 | 0.0 | 0.00 | 0.00 | 0.00 | 24 | 1008.7 |
| 20260510114527 | 64 | 156 | 6.0 | 0.0 | 0.00 | 0.00 | 0.00 | 23 | 1009.2 |
| 20260510114036 | 64 | 154 | 5.0 | 0.0 | 0.00 | 0.00 | 0.00 | 24 | 1009.2 |
| 20260510113523 | 64 | 141 | 4.0 | 0.0 | 0.00 | 0.00 | 0.00 | 22 | 1009.2 |
| 20260510113021 | 64 | 178 | 4.0 | 0.0 | 0.00 | 0.00 | 0.00 | 24 | 1009.3 |
| 20260510112528 | 64 | 155 | 4.0 | 0.0 | 0.00 | 0.00 | 0.00 | 22 | 1009.3 |
| 20260510112030 | 64 | 125 | 3.0 | 0.0 | 0.00 | 0.00 | 0.00 | 25 | 1009.3 |
| 20260510111531 | 64 | 138 | 4.0 | 0.0 | 0.00 | 0.00 | 0.00 | 23 | 1009.4 |
| 20260510111048 | 63 | 168 | 5.0 | 0.0 | 0.00 | 0.00 | 0.00 | 24 | 1009.4 |
| 20260510110528 | 63 | 176 | 5.0 | 0.0 | 0.00 | 0.00 | 0.00 | 26 | 1009.4 |
| 20260510110031 | 63 | 139 | 6.0 | 0.0 | 0.00 | 0.00 | 0.00 | 23 | 1009.7 |
| 20260510105546 | 64 | 165 | 5.0 | 0.0 | 0.00 | 0.00 | 0.00 | 23 | 1009.7 |
| 20260510105029 | 64 | 165 | 5.0 | 0.0 | 0.00 | 0.00 | 0.00 | 24 | 1009.7 |
| 20260510104541 | 63 | 141 | 5.0 | 0.0 | 0.00 | 0.00 | 0.00 | 26 | 1009.7 |
| 20260510104023 | 63 | 145 | 5.0 | 0.0 | 0.00 | 0.00 | 0.00 | 24 | 1009.9 |
| 20260510103559 | 63 | 132 | 4.0 | 0.0 | 0.00 | 0.00 | 0.00 | 24 | 1009.9 |
| 20260510103028 | 63 | 169 | 2.0 | 0.0 | 0.00 | 0.00 | 0.00 | 25 | 1010.2 |
| 20260510102533 | 63 | 144 | 3.0 | 0.0 | 0.00 | 0.00 | 0.00 | 27 | 1010.2 |
| 20260510102021 | 63 | 175 | 5.0 | 0.0 | 0.00 | 0.00 | 0.00 | 24 | 1010.2 |
| 20260510101520 | 62 | 175 | 5.0 | 0.0 | 0.00 | 0.00 | 0.00 | 30 | 1010.3 |
| 20260510101033 | 62 | 170 | 5.0 | 0.0 | 0.00 | 0.00 | 0.00 | 27 | 1010.3 |
| 20260510100538 | 61 | 135 | 5.0 | 0.0 | 0.00 | 0.00 | 0.00 | 26 | 1010.3 |
| 20260510100049 | 61 | 138 | 4.0 | 0.0 | 0.00 | 0.00 | 0.00 | 27 | 1010.3 |
| 20260510095537 | 61 | 151 | 4.0 | 0.0 | 0.00 | 0.00 | 0.00 | 26 | 1010.7 |
| 20260510095025 | 61 | 186 | 5.0 | 0.0 | 0.00 | 0.00 | 0.00 | 26 | 1010.7 |
| 20260510094546 | 61 | 151 | 4.0 | 0.0 | 0.00 | 0.00 | 0.00 | 25 | 1010.8 |
| 20260510094038 | 61 | 168 | 4.0 | 0.0 | 0.00 | 0.00 | 0.00 | 27 | 1010.8 |
| 20260510093530 | 61 | 128 | 5.0 | 0.0 | 0.00 | 0.00 | 0.00 | 27 | 1010.8 |
| 20260510093035 | 60 | 146 | 5.0 | 0.0 | 0.00 | 0.00 | 0.00 | 31 | 1010.9 |
| 20260510092545 | 60 | 132 | 5.0 | 0.0 | 0.00 | 0.00 | 0.00 | 28 | 1010.9 |
| 20260510092055 | 61 | 132 | 5.0 | 0.0 | 0.00 | 0.00 | 0.00 | 25 | 1010.9 |
| 20260510090032 | 59 | 193 | 5.0 | 0.0 | 0.00 | 0.00 | 0.00 | 26 | 1011.4 |
| 20260510085547 | 59 | 132 | 6.0 | 0.0 | 0.00 | 0.00 | 0.00 | 30 | 1011.4 |
| 20260510085041 | 59 | 165 | 6.0 | 0.0 | 0.00 | 0.00 | 0.00 | 31 | 1011.4 |
| 20260510084123 | 59 | 134 | 5.0 | 0.0 | 0.00 | 0.00 | 0.00 | 30 | 1011.5 |
| 20260510082534 | 59 | 162 | 7.0 | 0.0 | 0.00 | 0.00 | 0.00 | 31 | 1011.8 |
| 20260510082031 | 59 | 159 | 7.0 | 0.0 | 0.00 | 0.00 | 0.00 | 34 | 1011.8 |
| 20260510081538 | 59 | 169 | 5.0 | 0.0 | 0.00 | 0.00 | 0.00 | 32 | 1011.8 |
| 20260510081034 | 59 | 206 | 4.0 | 0.0 | 0.00 | 0.00 | 0.00 | 36 | 1012.0 |
| 20260510080021 | 58 | 180 | 6.0 | 0.0 | 0.00 | 0.00 | 0.00 | 36 | 1012.2 |
| 20260510075550 | 58 | 146 | 6.0 | 0.0 | 0.00 | 0.00 | 0.00 | 38 | 1012.2 |
| 20260510075120 | 58 | 149 | 8.0 | 0.0 | 0.00 | 0.00 | 0.00 | 37 | 1012.2 |
| 20260510075035 | 58 | 149 | 8.0 | 0.0 | 0.00 | 0.00 | 0.00 | 37 | 1012.2 |
| 20260510074531 | 58 | 162 | 7.0 | 0.0 | 0.00 | 0.00 | 0.00 | 34 | 1012.3 |
| 20260510074021 | 58 | 122 | 5.0 | 0.0 | 0.00 | 0.00 | 0.00 | 37 | 1012.3 |
| 20260510073538 | 58 | 149 | 5.0 | 0.0 | 0.00 | 0.00 | 0.00 | 39 | 1012.3 |
| 20260510073039 | 57 | 159 | 5.0 | 0.0 | 0.00 | 0.00 | 0.00 | 36 | 1012.3 |
| 20260510072536 | 57 | 135 | 5.0 | 0.0 | 0.00 | 0.00 | 0.00 | 36 | 1012.5 |
| 20260510072022 | 57 | 154 | 6.0 | 0.0 | 0.00 | 0.00 | 0.00 | 38 | 1012.5 |
| 20260510071553 | 56 | 113 | 6.0 | 0.0 | 0.00 | 0.00 | 0.00 | 37 | 1012.8 |
| 20260510070537 | 57 | 186 | 4.0 | 0.0 | 0.00 | 0.00 | 0.00 | 35 | 1012.9 |
| 20260510070023 | 57 | 128 | 2.0 | 0.0 | 0.00 | 0.00 | 0.00 | 36 | 1013.0 |
| 20260510065520 | 56 | 173 | 3.0 | 0.0 | 0.00 | 0.00 | 0.00 | 39 | 1012.9 |
| 20260510065055 | 56 | 138 | 3.0 | 0.0 | 0.00 | 0.00 | 0.00 | 32 | 1012.9 |
| 20260510064523 | 56 | 134 | 2.0 | 0.0 | 0.00 | 0.00 | 0.00 | 39 | 1013.3 |
| 20260510064034 | 55 | 122 | 2.0 | 0.0 | 0.00 | 0.00 | 0.00 | 39 | 1013.2 |
| 20260510063537 | 54 | 121 | 3.0 | 0.0 | 0.00 | 0.00 | 0.00 | 43 | 1013.2 |
| 20260510063023 | 54 | 124 | 4.0 | 0.0 | 0.00 | 0.00 | 0.00 | 39 | 1013.4 |
| 20260510062532 | 53 | 137 | 3.0 | 0.0 | 0.00 | 0.00 | 0.00 | 41 | 1013.4 |
| 20260510062137 | 53 | 138 | 4.0 | 0.0 | 0.00 | 0.00 | 0.00 | 40 | 1013.4 |
| 20260510061530 | 52 | 165 | 5.0 | 0.0 | 0.00 | 0.00 | 0.00 | 43 | 1013.6 |
| 20260510061031 | 52 | 130 | 4.0 | 0.0 | 0.00 | 0.00 | 0.00 | 42 | 1013.6 |
| 20260510060546 | 52 | 138 | 3.0 | 0.0 | 0.00 | 0.00 | 0.00 | 43 | 1013.6 |
| 20260510060030 | 52 | 175 | 3.0 | 0.0 | 0.00 | 0.00 | 0.00 | 46 | 1013.8 |
| 20260510055543 | 51 | 135 | 2.0 | 0.0 | 0.00 | 0.00 | 0.00 | 47 | 1013.8 |
| 20260510055023 | 50 | 138 | 2.0 | 0.0 | 0.00 | 0.00 | 0.00 | 45 | 1013.8 |
| 20260510054610 | 50 | 131 | 2.0 | 0.0 | 0.00 | 0.00 | 0.00 | 47 | 1013.8 |
| 20260510054028 | 49 | 135 | 3.0 | 0.0 | 0.00 | 0.00 | 0.00 | 46 | 1013.9 |
| 20260510053534 | 49 | 137 | 3.0 | 0.0 | 0.00 | 0.00 | 0.00 | 46 | 1013.9 |
| 20260510053034 | 49 | 152 | 3.0 | 0.0 | 0.00 | 0.00 | 0.00 | 48 | 1013.9 |
| 20260510052532 | 49 | 127 | 3.0 | 0.0 | 0.00 | 0.00 | 0.00 | 47 | 1014.1 |
| 20260510052037 | 48 | 138 | 3.0 | 0.0 | 0.00 | 0.00 | 0.00 | 47 | 1014.0 |
| 20260510051551 | 48 | 128 | 2.0 | 0.0 | 0.00 | 0.00 | 0.00 | 49 | 1014.3 |
| 20260510051033 | 47 | 138 | 2.0 | 0.0 | 0.00 | 0.00 | 0.00 | 51 | 1014.3 |
| 20260510050538 | 46 | 138 | 3.0 | 0.0 | 0.00 | 0.00 | 0.00 | 50 | 1014.3 |
| 20260510050059 | 45 | 125 | 3.0 | 0.0 | 0.00 | 0.00 | 0.00 | 54 | 1014.3 |
| 20260510045522 | 44 | 161 | 4.0 | 0.0 | 0.00 | 0.00 | 0.00 | 51 | 1014.4 |
| 20260510045027 | 44 | 134 | 4.0 | 0.0 | 0.00 | 0.00 | 0.00 | 50 | 1014.4 |
| 20260510044547 | 43 | 139 | 3.0 | 0.0 | 0.00 | 0.00 | 0.00 | 52 | 1014.4 |
| 20260510044030 | 43 | 128 | 3.0 | 0.0 | 0.00 | 0.00 | 0.00 | 52 | 1014.5 |
| 20260510043535 | 42 | 131 | 3.0 | 0.0 | 0.00 | 0.00 | 0.00 | 53 | 1014.5 |
| 20260510043037 | 42 | 131 | 2.0 | 0.0 | 0.00 | 0.00 | 0.00 | 53 | 1014.5 |
| 20260510042552 | 42 | 121 | 2.0 | 0.0 | 0.00 | 0.00 | 0.00 | 54 | 1014.7 |
| 20260510042035 | 42 | 122 | 2.0 | 0.0 | 0.00 | 0.00 | 0.00 | 56 | 1014.7 |
| 20260510041529 | 41 | 122 | 2.0 | 0.0 | 0.00 | 0.00 | 0.00 | 56 | 1014.9 |
| 20260510041031 | 41 | 121 | 3.0 | 0.0 | 0.00 | 0.00 | 0.00 | 57 | 1014.9 |
| 20260510040520 | 41 | 120 | 3.0 | 0.0 | 0.00 | 0.00 | 0.00 | 58 | 1014.9 |
| 20260510040031 | 40 | 134 | 3.0 | 0.0 | 0.00 | 0.00 | 0.00 | 60 | 1015.0 |
| 20260510035537 | 40 | 134 | 2.0 | 0.0 | 0.00 | 0.00 | 0.00 | 60 | 1015.0 |
| 20260510035025 | 39 | 137 | 2.0 | 0.0 | 0.00 | 0.00 | 0.00 | 62 | 1015.0 |
| 20260510034541 | 39 | 134 | 2.0 | 0.0 | 0.00 | 0.00 | 0.00 | 62 | 1015.0 |
| 20260510034024 | 38 | 138 | 1.0 | 0.0 | 0.00 | 0.00 | 0.00 | 64 | 1015.4 |
| 20260510033532 | 38 | 138 | 1.0 | 0.0 | 0.00 | 0.00 | 0.00 | 64 | 1015.4 |
| 20260510033021 | 38 | 138 | 2.0 | 0.0 | 0.00 | 0.00 | 0.00 | 64 | 1015.5 |
| 20260510032525 | 38 | 139 | 2.0 | 0.0 | 0.00 | 0.00 | 0.00 | 65 | 1015.5 |
| 20260510032043 | 38 | 155 | 2.0 | 0.0 | 0.00 | 0.00 | 0.00 | 66 | 1015.5 |
| 20260510031530 | 38 | 163 | 1.0 | 0.0 | 0.00 | 0.00 | 0.00 | 66 | 1015.9 |
| 20260510031027 | 38 | 163 | 1.0 | 0.0 | 0.00 | 0.00 | 0.00 | 66 | 1015.9 |
| 20260510030534 | 38 | 163 | 1.0 | 0.0 | 0.00 | 0.00 | 0.00 | 67 | 1015.9 |
| 20260510030025 | 37 | 163 | 1.0 | 0.0 | 0.00 | 0.00 | 0.00 | 67 | 1016.0 |
| 20260510025532 | 37 | 163 | 1.0 | 0.0 | 0.00 | 0.00 | 0.00 | 66 | 1016.0 |
| 20260510025038 | 37 | 163 | 1.0 | 0.0 | 0.00 | 0.00 | 0.00 | 67 | 1016.0 |
| 20260510024531 | 37 | 163 | 1.0 | 0.0 | 0.00 | 0.00 | 0.00 | 67 | 1016.1 |
| 20260510024039 | 37 | 194 | 1.0 | 0.0 | 0.00 | 0.00 | 0.00 | 67 | 1016.1 |
| 20260510023527 | 37 | 194 | 1.0 | 0.0 | 0.00 | 0.00 | 0.00 | 67 | 1016.1 |
| 20260510023027 | 37 | 194 | 2.0 | 0.0 | 0.00 | 0.00 | 0.00 | 67 | 1016.2 |
| 20260510022533 | 37 | 194 | 2.0 | 0.0 | 0.00 | 0.00 | 0.00 | 67 | 1016.2 |
| 20260510022044 | 37 | 196 | 1.0 | 0.0 | 0.00 | 0.00 | 0.00 | 66 | 1016.2 |
| 20260510021530 | 37 | 196 | 1.0 | 0.0 | 0.00 | 0.00 | 0.00 | 66 | 1016.5 |
| 20260510021035 | 38 | 196 | 2.0 | 0.0 | 0.00 | 0.00 | 0.00 | 65 | 1016.5 |
| 20260510020552 | 38 | 196 | 2.0 | 0.0 | 0.00 | 0.00 | 0.00 | 64 | 1016.5 |
| 20260510020100 | 38 | 196 | 1.0 | 0.0 | 0.00 | 0.00 | 0.00 | 64 | 1016.5 |
| 20260510015533 | 38 | 197 | 1.0 | 0.0 | 0.00 | 0.00 | 0.00 | 64 | 1016.6 |
| 20260510015022 | 38 | 197 | 1.0 | 0.0 | 0.00 | 0.00 | 0.00 | 64 | 1016.6 |
| 20260510014536 | 38 | 197 | 1.0 | 0.0 | 0.00 | 0.00 | 0.00 | 64 | 1016.6 |
| 20260510014039 | 38 | 197 | 1.0 | 0.0 | 0.00 | 0.00 | 0.00 | 64 | 1016.6 |
| 20260510013527 | 39 | 197 | 1.0 | 0.0 | 0.00 | 0.00 | 0.00 | 63 | 1016.6 |
| 20260510013035 | 39 | 197 | 1.0 | 0.0 | 0.00 | 0.00 | 0.00 | 63 | 1016.6 |
| 20260510012521 | 39 | 197 | 1.0 | 0.0 | 0.00 | 0.00 | 0.00 | 62 | 1016.8 |
| 20260510012036 | 39 | 197 | 1.0 | 0.0 | 0.00 | 0.00 | 0.00 | 61 | 1016.8 |
| 20260510011521 | 39 | 197 | 1.0 | 0.0 | 0.00 | 0.00 | 0.00 | 61 | 1017.0 |
| 20260510011028 | 39 | 197 | 1.0 | 0.0 | 0.00 | 0.00 | 0.00 | 61 | 1017.0 |
| 20260510010523 | 40 | 199 | 0.0 | 0.0 | 0.00 | 0.00 | 0.00 | 62 | 1017.0 |
| 20260510010026 | 40 | 199 | 0.0 | 0.0 | 0.00 | 0.00 | 0.00 | 62 | 1017.0 |
| 20260510005539 | 40 | 199 | 0.0 | 0.0 | 0.00 | 0.00 | 0.00 | 63 | 1017.0 |
| 20260510005026 | 40 | 199 | 0.0 | 0.0 | 0.00 | 0.00 | 0.00 | 63 | 1017.0 |
| 20260510004542 | 40 | 199 | 0.0 | 0.0 | 0.00 | 0.00 | 0.00 | 63 | 1017.0 |
| 20260510004027 | 40 | 199 | 0.0 | 0.0 | 0.00 | 0.00 | 0.00 | 63 | 1017.0 |
| 20260510003534 | 40 | 199 | 0.0 | 0.0 | 0.00 | 0.00 | 0.00 | 63 | 1017.0 |
| 20260510003020 | 40 | 199 | 1.0 | 0.0 | 0.00 | 0.00 | 0.00 | 63 | 1017.1 |
| 20260510002533 | 40 | 199 | 1.0 | 0.0 | 0.00 | 0.00 | 0.00 | 63 | 1017.1 |
| 20260510002034 | 40 | 199 | 1.0 | 0.0 | 0.00 | 0.00 | 0.00 | 63 | 1017.1 |
| 20260510001526 | 40 | 199 | 1.0 | 0.0 | 0.00 | 0.00 | 0.00 | 62 | 1017.1 |
| 20260510001047 | 40 | 199 | 1.0 | 0.0 | 0.00 | 0.00 | 0.00 | 61 | 1017.1 |
| 20260510000532 | 40 | 199 | 1.0 | 0.0 | 0.00 | 0.00 | 0.00 | 62 | 1017.1 |
| 20260510000026 | 40 | 199 | 2.0 | 0.0 | 0.00 | 0.00 | 0.00 | 63 | 1017.2 |
| 20260509235531 | 40 | 199 | 1.0 | 0.0 | 0.00 | 0.00 | 0.00 | 64 | 1017.2 |
| 20260509235020 | 40 | 199 | 2.0 | 0.0 | 0.00 | 0.00 | 0.00 | 63 | 1017.2 |
| 20260509234526 | 40 | 199 | 2.0 | 0.0 | 0.00 | 0.00 | 0.00 | 63 | 1017.5 |
| 20260509234031 | 40 | 199 | 2.0 | 0.0 | 0.00 | 0.00 | 0.00 | 63 | 1017.5 |
| 20260509233538 | 40 | 199 | 1.0 | 0.0 | 0.00 | 0.00 | 0.00 | 63 | 1017.5 |
| 20260509233027 | 40 | 199 | 1.0 | 0.0 | 0.00 | 0.00 | 0.00 | 63 | 1017.6 |
| 20260509232542 | 40 | 199 | 1.0 | 0.0 | 0.00 | 0.00 | 0.00 | 62 | 1017.6 |
| 20260509232049 | 40 | 199 | 1.0 | 0.0 | 0.00 | 0.00 | 0.00 | 61 | 1017.6 |
| 20260509231523 | 40 | 199 | 1.0 | 0.0 | 0.00 | 0.00 | 0.00 | 61 | 1017.7 |
| 20260509231031 | 40 | 199 | 2.0 | 0.0 | 0.00 | 0.00 | 0.00 | 60 | 1017.7 |
| 20260509230547 | 40 | 199 | 2.0 | 0.0 | 0.00 | 0.00 | 0.00 | 58 | 1017.7 |
| 20260509230031 | 40 | 199 | 2.0 | 0.0 | 0.00 | 0.00 | 0.00 | 58 | 1017.9 |
| 20260509225534 | 41 | 199 | 2.0 | 0.0 | 0.00 | 0.00 | 0.00 | 57 | 1017.9 |
| 20260509225048 | 41 | 199 | 2.0 | 0.0 | 0.00 | 0.00 | 0.00 | 57 | 1017.9 |
| 20260509224530 | 41 | 199 | 2.0 | 0.0 | 0.00 | 0.00 | 0.00 | 56 | 1018.1 |
| 20260509224047 | 41 | 199 | 2.0 | 0.0 | 0.00 | 0.00 | 0.00 | 56 | 1018.1 |
| 20260509223529 | 41 | 199 | 2.0 | 0.0 | 0.00 | 0.00 | 0.00 | 57 | 1018.1 |
| 20260509223035 | 41 | 199 | 2.0 | 0.0 | 0.00 | 0.00 | 0.00 | 57 | 1018.1 |
| 20260509222552 | 41 | 200 | 3.0 | 0.0 | 0.00 | 0.00 | 0.00 | 58 | 1018.2 |
| 20260509222036 | 40 | 200 | 3.0 | 0.0 | 0.00 | 0.00 | 0.00 | 59 | 1018.2 |
| 20260509221555 | 40 | 200 | 3.0 | 0.0 | 0.00 | 0.00 | 0.00 | 62 | 1018.2 |
| 20260509221035 | 39 | 203 | 2.0 | 0.0 | 0.00 | 0.00 | 0.00 | 64 | 1018.4 |
| 20260509220546 | 38 | 203 | 2.0 | 0.0 | 0.00 | 0.00 | 0.00 | 66 | 1018.4 |
| 20260509220056 | 38 | 203 | 1.0 | 0.0 | 0.00 | 0.00 | 0.00 | 66 | 1018.4 |
| 20260509215521 | 38 | 203 | 0.0 | 0.0 | 0.00 | 0.00 | 0.00 | 66 | 1018.5 |
| 20260509215031 | 39 | 203 | 0.0 | 0.0 | 0.00 | 0.00 | 0.00 | 64 | 1018.5 |
| 20260509214537 | 39 | 203 | 0.0 | 0.0 | 0.00 | 0.00 | 0.00 | 63 | 1018.5 |
| 20260509214023 | 39 | 203 | 0.0 | 0.0 | 0.00 | 0.00 | 0.00 | 62 | 1018.6 |
| 20260509213541 | 40 | 203 | 0.0 | 0.0 | 0.00 | 0.00 | 0.00 | 60 | 1018.6 |
| 20260509213025 | 40 | 203 | 0.0 | 0.0 | 0.00 | 0.00 | 0.00 | 59 | 1018.6 |
| 20260509212533 | 40 | 203 | 0.0 | 0.0 | 0.00 | 0.00 | 0.00 | 59 | 1018.6 |
| 20260509212030 | 40 | 203 | 0.0 | 0.0 | 0.00 | 0.00 | 0.00 | 58 | 1018.6 |
| 20260509211540 | 41 | 203 | 0.0 | 0.0 | 0.00 | 0.00 | 0.00 | 58 | 1018.6 |
| 20260509211028 | 41 | 203 | 0.0 | 0.0 | 0.00 | 0.00 | 0.00 | 58 | 1018.6 |
| 20260509210548 | 42 | 203 | 0.0 | 0.0 | 0.00 | 0.00 | 0.00 | 56 | 1018.6 |
| 20260509210033 | 42 | 203 | 0.0 | 0.0 | 0.00 | 0.00 | 0.00 | 56 | 1018.6 |
| 20260509205542 | 42 | 203 | 0.0 | 0.0 | 0.00 | 0.00 | 0.00 | 55 | 1018.6 |
| 20260509205032 | 42 | 203 | 0.0 | 0.0 | 0.00 | 0.00 | 0.00 | 55 | 1018.6 |
| 20260509204539 | 43 | 203 | 0.0 | 0.0 | 0.00 | 0.00 | 0.00 | 54 | 1018.6 |
| 20260509204026 | 43 | 203 | 0.0 | 0.0 | 0.00 | 0.00 | 0.00 | 53 | 1018.7 |
| 20260509203544 | 43 | 203 | 0.0 | 0.0 | 0.00 | 0.00 | 0.00 | 53 | 1018.7 |
| 20260509203053 | 43 | 203 | 0.0 | 0.0 | 0.00 | 0.00 | 0.00 | 52 | 1018.8 |
| 20260509202525 | 44 | 203 | 0.0 | 0.0 | 0.00 | 0.00 | 0.00 | 52 | 1018.8 |
| 20260509202027 | 44 | 203 | 0.0 | 0.0 | 0.00 | 0.00 | 0.00 | 51 | 1018.8 |
| 20260509201548 | 44 | 203 | 0.0 | 0.0 | 0.00 | 0.00 | 0.00 | 50 | 1018.8 |
| 20260509201037 | 44 | 203 | 0.0 | 0.0 | 0.00 | 0.00 | 0.00 | 50 | 1018.8 |
| 20260509200557 | 44 | 203 | 0.0 | 0.0 | 0.00 | 0.00 | 0.00 | 51 | 1018.8 |
| 20260509200023 | 44 | 203 | 0.0 | 0.0 | 0.00 | 0.00 | 0.00 | 50 | 1018.8 |
| 20260509195542 | 45 | 203 | 0.0 | 0.0 | 0.00 | 0.00 | 0.00 | 50 | 1018.8 |
| 20260509195029 | 45 | 203 | 0.0 | 0.0 | 0.00 | 0.00 | 0.00 | 50 | 1018.8 |
| 20260509194539 | 45 | 203 | 0.0 | 0.0 | 0.00 | 0.00 | 0.00 | 49 | 1018.8 |
| 20260509194023 | 46 | 203 | 0.0 | 0.0 | 0.00 | 0.00 | 0.00 | 49 | 1018.7 |
| 20260509193541 | 46 | 203 | 0.0 | 0.0 | 0.00 | 0.00 | 0.00 | 48 | 1018.7 |
| 20260509193030 | 46 | 203 | 0.0 | 0.0 | 0.00 | 0.00 | 0.00 | 47 | 1018.7 |
| 20260509192537 | 47 | 203 | 0.0 | 0.0 | 0.00 | 0.00 | 0.00 | 47 | 1018.7 |
| 20260509192027 | 47 | 203 | 0.0 | 0.0 | 0.00 | 0.00 | 0.00 | 46 | 1018.7 |
| 20260509191546 | 48 | 203 | 0.0 | 0.0 | 0.00 | 0.00 | 0.00 | 46 | 1018.7 |
| 20260509191033 | 48 | 203 | 0.0 | 0.0 | 0.00 | 0.00 | 0.00 | 45 | 1018.7 |
| 20260509190524 | 49 | 203 | 0.0 | 0.0 | 0.00 | 0.00 | 0.00 | 44 | 1018.7 |
| 20260509190047 | 49 | 203 | 0.0 | 0.0 | 0.00 | 0.00 | 0.00 | 43 | 1018.7 |
| 20260509185537 | 50 | 203 | 0.0 | 0.0 | 0.00 | 0.00 | 0.00 | 43 | 1018.7 |
| 20260509185058 | 50 | 203 | 0.0 | 0.0 | 0.00 | 0.00 | 0.00 | 43 | 1018.7 |
| 20260509184526 | 51 | 203 | 0.0 | 0.0 | 0.00 | 0.00 | 0.00 | 42 | 1018.6 |
| 20260509184025 | 51 | 203 | 0.0 | 0.0 | 0.00 | 0.00 | 0.00 | 41 | 1018.6 |
| 20260509183529 | 51 | 203 | 0.0 | 0.0 | 0.00 | 0.00 | 0.00 | 41 | 1018.6 |
| 20260509183027 | 52 | 203 | 0.0 | 0.0 | 0.00 | 0.00 | 0.00 | 40 | 1018.6 |
| 20260509182535 | 52 | 203 | 0.0 | 0.0 | 0.00 | 0.00 | 0.00 | 39 | 1018.6 |
| 20260509182022 | 53 | 203 | 0.0 | 0.0 | 0.00 | 0.00 | 0.00 | 39 | 1018.6 |
| 20260509181541 | 53 | 203 | 0.0 | 0.0 | 0.00 | 0.00 | 0.00 | 38 | 1018.6 |
| 20260509181027 | 53 | 203 | 0.0 | 0.0 | 0.00 | 0.00 | 0.00 | 37 | 1018.5 |
| 20260509180531 | 54 | 203 | 0.0 | 0.0 | 0.00 | 0.00 | 0.00 | 36 | 1018.6 |
| 20260509180039 | 54 | 203 | 1.0 | 0.0 | 0.00 | 0.00 | 0.00 | 34 | 1018.6 |
| 20260509175525 | 55 | 203 | 0.0 | 0.0 | 0.00 | 0.00 | 0.00 | 35 | 1018.5 |
| 20260509175041 | 55 | 203 | 1.0 | 0.0 | 0.00 | 0.00 | 0.00 | 35 | 1018.5 |
| 20260509174532 | 55 | 203 | 1.0 | 0.0 | 0.00 | 0.00 | 0.00 | 35 | 1018.3 |
| 20260509174023 | 56 | 203 | 1.0 | 0.0 | 0.00 | 0.00 | 0.00 | 35 | 1018.3 |
| 20260509173531 | 56 | 203 | 1.0 | 0.0 | 0.00 | 0.00 | 0.00 | 34 | 1018.3 |
| 20260509173052 | 56 | 203 | 1.0 | 0.0 | 0.00 | 0.00 | 0.00 | 32 | 1018.3 |
| 20260509172536 | 57 | 203 | 1.0 | 0.0 | 0.00 | 0.00 | 0.00 | 33 | 1018.3 |
| 20260509172057 | 57 | 203 | 1.0 | 0.0 | 0.00 | 0.00 | 0.00 | 32 | 1018.3 |
| 20260509171536 | 57 | 204 | 2.0 | 0.0 | 0.00 | 0.00 | 0.00 | 33 | 1018.3 |
| 20260509171034 | 58 | 206 | 2.0 | 0.0 | 0.00 | 0.00 | 0.00 | 32 | 1018.4 |
| 20260509170521 | 58 | 220 | 1.0 | 0.0 | 0.00 | 0.00 | 0.00 | 33 | 1018.4 |
| 20260509170025 | 58 | 275 | 1.0 | 0.0 | 0.00 | 0.00 | 0.00 | 33 | 1018.6 |
| 20260509165541 | 59 | 278 | 2.0 | 0.0 | 0.00 | 0.00 | 0.00 | 32 | 1018.6 |
| 20260509165027 | 59 | 274 | 2.0 | 0.0 | 0.00 | 0.00 | 0.00 | 28 | 1018.6 |
| 20260509164606 | 59 | 258 | 2.0 | 0.0 | 0.00 | 0.00 | 0.00 | 31 | 1018.5 |
| 20260509164047 | 60 | 266 | 3.0 | 0.0 | 0.00 | 0.00 | 0.00 | 32 | 1018.5 |
| 20260509163531 | 60 | 248 | 2.0 | 0.0 | 0.00 | 0.00 | 0.00 | 30 | 1018.5 |
| 20260509163043 | 60 | 206 | 2.0 | 0.0 | 0.00 | 0.00 | 0.00 | 29 | 1018.6 |
| 20260509162536 | 60 | 209 | 1.0 | 0.0 | 0.00 | 0.00 | 0.00 | 31 | 1018.6 |
| 20260509162042 | 60 | 206 | 1.0 | 0.0 | 0.00 | 0.00 | 0.00 | 30 | 1018.6 |
| 20260509161528 | 60 | 206 | 1.0 | 0.0 | 0.00 | 0.00 | 0.00 | 27 | 1018.6 |
| 20260509161044 | 60 | 200 | 1.0 | 0.0 | 0.00 | 0.00 | 0.00 | 31 | 1018.6 |
| 20260509160533 | 61 | 200 | 2.0 | 0.0 | 0.00 | 0.00 | 0.00 | 29 | 1018.6 |
| 20260509160105 | 61 | 200 | 3.0 | 0.0 | 0.00 | 0.00 | 0.00 | 28 | 1018.6 |
| 20260509155530 | 61 | 193 | 3.0 | 0.0 | 0.00 | 0.00 | 0.00 | 27 | 1018.8 |
| 20260509155034 | 62 | 192 | 3.0 | 0.0 | 0.00 | 0.00 | 0.00 | 27 | 1018.8 |
| 20260509154545 | 62 | 178 | 3.0 | 0.0 | 0.00 | 0.00 | 0.00 | 28 | 1018.7 |
| 20260509154030 | 62 | 149 | 2.0 | 0.0 | 0.00 | 0.00 | 0.00 | 28 | 1018.9 |
| 20260509153536 | 62 | 163 | 2.0 | 0.0 | 0.00 | 0.00 | 0.00 | 27 | 1018.9 |
| 20260509153025 | 62 | 172 | 1.0 | 0.0 | 0.00 | 0.00 | 0.00 | 27 | 1019.1 |
| 20260509152541 | 61 | 189 | 1.0 | 0.0 | 0.00 | 0.00 | 0.00 | 26 | 1019.1 |
| 20260509152026 | 61 | 203 | 2.0 | 0.0 | 0.00 | 0.00 | 0.00 | 29 | 1019.1 |
| 20260509151529 | 61 | 206 | 3.0 | 0.0 | 0.00 | 0.00 | 0.00 | 27 | 1019.2 |
| 20260509151054 | 61 | 145 | 2.0 | 0.0 | 0.00 | 0.00 | 0.00 | 30 | 1019.2 |
| 20260509150536 | 61 | 162 | 1.0 | 0.0 | 0.00 | 0.00 | 0.00 | 27 | 1019.2 |
| 20260509150026 | 61 | 163 | 2.0 | 0.0 | 0.00 | 0.00 | 0.00 | 25 | 1019.6 |
| 20260509145533 | 61 | 163 | 3.0 | 0.0 | 0.00 | 0.00 | 0.00 | 26 | 1019.6 |
| 20260509145036 | 61 | 91 | 4.0 | 0.0 | 0.00 | 0.00 | 0.00 | 27 | 1019.6 |
| 20260509144531 | 61 | 138 | 4.0 | 0.0 | 0.00 | 0.00 | 0.00 | 27 | 1019.7 |
| 20260509144035 | 61 | 132 | 4.0 | 0.0 | 0.00 | 0.00 | 0.00 | 28 | 1019.7 |
| 20260509143522 | 61 | 141 | 4.0 | 0.0 | 0.00 | 0.00 | 0.00 | 26 | 1019.7 |
| 20260509143037 | 61 | 165 | 4.0 | 0.0 | 0.00 | 0.00 | 0.00 | 26 | 1019.7 |
| 20260509142540 | 62 | 163 | 5.0 | 0.0 | 0.00 | 0.00 | 0.00 | 28 | 1019.8 |
| 20260509142029 | 62 | 180 | 5.0 | 0.0 | 0.00 | 0.00 | 0.00 | 26 | 1019.8 |
| 20260509141531 | 62 | 90 | 4.0 | 0.0 | 0.00 | 0.00 | 0.00 | 26 | 1020.2 |
| 20260509141049 | 62 | 138 | 3.0 | 0.0 | 0.00 | 0.00 | 0.00 | 26 | 1020.2 |
| 20260509140532 | 62 | 145 | 3.0 | 0.0 | 0.00 | 0.00 | 0.00 | 27 | 1020.2 |
| 20260509140032 | 62 | 152 | 4.0 | 0.0 | 0.00 | 0.00 | 0.00 | 27 | 1020.2 |
| 20260509135547 | 63 | 144 | 5.0 | 0.0 | 0.00 | 0.00 | 0.00 | 24 | 1020.2 |
| 20260509135030 | 64 | 214 | 3.0 | 0.0 | 0.00 | 0.00 | 0.00 | 26 | 1020.2 |
| 20260509134529 | 64 | 124 | 3.0 | 0.0 | 0.00 | 0.00 | 0.00 | 27 | 1020.3 |
| 20260509134035 | 64 | 163 | 3.0 | 0.0 | 0.00 | 0.00 | 0.00 | 24 | 1020.3 |
| 20260509133552 | 64 | 121 | 2.0 | 0.0 | 0.00 | 0.00 | 0.00 | 24 | 1020.3 |
| 20260509133047 | 64 | 178 | 3.0 | 0.0 | 0.00 | 0.00 | 0.00 | 25 | 1020.3 |
| 20260509132535 | 65 | 179 | 3.0 | 0.0 | 0.00 | 0.00 | 0.00 | 26 | 1020.7 |
| 20260509132038 | 65 | 138 | 4.0 | 0.0 | 0.00 | 0.00 | 0.00 | 24 | 1020.7 |
| 20260509131548 | 65 | 134 | 4.0 | 0.0 | 0.00 | 0.00 | 0.00 | 23 | 1020.8 |
| 20260509131027 | 65 | 189 | 4.0 | 0.0 | 0.00 | 0.00 | 0.00 | 24 | 1020.8 |